Location: Boitzum
(52.1496°N, 9.6943°E)
Time: 00:40:10
(UTC+00:00)

Cosmos 2074 Rocket - Pass Details

Date: 23 April 2026
Orbit: 967 x 984 km, 82.9° (Epoch: 19 May)

Event Time Altitude Azimuth Distance (km) Brightness Sun altitude
Rises 19:06:49 0° 227° (SW) 3,669 7.3 -5.5°
Reaches altitude 10° 19:09:44 10° 240° (WSW) 2,728 6.8 -5.9°
Maximum altitude 19:14:59 28° 297° (WNW) 1,775 6.5 -6.6°
Drops below altitude 10° 19:20:17 10° 354° (N) 2,751 6.9 -7.3°
Sets 19:23:15 0° 7° (N) 3,705 7.4 -7.7°
